{"data":{"norad_id":65485,"intl_designator":"2025-195AD","name":"STARLINK-35143","alt_names":[],"object_type":"PAYLOAD","status":"ACTIVE","operator":null,"country":"US","launch_date":"2025-09-03","launch_site_code":"AFETR","launch_vehicle":null,"mission":null,"orbit_class":"UNKNOWN","rcs_meters":null,"size_class":null,"mass_kg":null,"dimensions":null,"purposes":["comms"],"wikipedia_slug":null,"has_3d_model":false,"image_url":null,"decayed_at":null,"tle_current":{"epoch":"2026-05-24T16:28:40.311552Z","epoch_age_seconds":96019,"freshness":"FRESH","line1":"1 65485U 25195AD  26144.68657768  .00032166  00000+0  10937-2 0  9999","line2":"2 65485  53.1582 264.8395 0001189  80.6945 279.4190 15.30192621 41616","mean_motion":15.30192621,"eccentricity":0.0001189,"inclination_deg":53.1582,"raan_deg":264.8395,"arg_perigee_deg":80.6945,"mean_anomaly_deg":279.419,"bstar":0.0010937,"rev_number":4161,"period_min":94.105799507708,"perigee_km":474.42223569108,"apogee_km":476.0519680525,"semimajor_km":6853.3741018718,"source":"CELESTRAK","updated_at":"2026-05-25T13:38:20.839058Z"}}}